User: anonymous   Login
Location: Unspecified
(0.0000°N, 0.0000°E)
Time: 03:50:14
(UTC+00:00)
Language:

GALEX - Orbit

View from above orbital plane
View from above orbital plane
View from above satellite
View from above satellite

Ground track
Ground track

The orbit data is extracted from the following two-line orbital elements,

1 27783U 03017A   18292.41662398 +.00000218 +00000-0 +21704-4 0  9998
2 27783 028.9992 337.7698 0003613 184.9853 175.0699 14.62118925827083
Epoch (UTC): 19 October 2018 09:59:56
Eccentricity: 0.0003613
inclination: 28.9992°
perigee height: 684 km
apogee height: 689 km
right ascension of ascending node: 337.7698°
argument of perigee: 184.9853°
revolutions per day: 14.62118925
mean anomaly at epoch: 175.0699°
orbit number at epoch: 82708

The dashed part of the orbit path shows where the satellite is in the earth's shadow,  

DLR